Regional Weather Roundup
Issued by NWS

Home | Current Version | Previous Version | Text Only | Print | Product List | Glossary On
Versions: 1 2 3 4 5 6 7 8 9 10 11 12 13 14 15 16 17 18 19 20 21 22 23 24 25 26 27 28 29 30 31 32 33 34 35 36 37 38 39 40 41 42 43 44 45 46 47 48 49 50
000
ASUS45 KCYS 182010
RWRWY

WYOMING REGIONAL WEATHER ROUNDUP
NATIONAL WEATHER SERVICE CHEYENNE WY
200 PM MDT THU SEP 18 2014

NOTE:  "FAIR" INDICATES FEW OR NO CLOUDS BELOW 12,000 FEET
WITH NO SIGNIFICANT WEATHER AND/OR OBSTRUCTIONS TO VISIBILITY.

WYZ001-182100-
YELLOWSTONE NATIONAL PARK

CITY           SKY/WX    TMP DP  RH WIND       PRES   REMARKS
LK YELLOWSTONE   N/A     54  50  86 CALM      30.14S
W YELLOWSTONE  NOT AVBL

$$
WYZ002>013-054>058-071-098>099-182100-
NORTHERN WYOMING

CITY           SKY/WX    TMP DP  RH WIND       PRES   REMARKS
JACKSON        PTSUNNY   70  52  52 CALM      30.01F
CODY             N/A    N/A N/A N/A MISG        N/A
GREYBULL       PTSUNNY   77  45  32 N16       29.86R
WORLAND        PTSUNNY   83  42  23 NW5       29.84F
SHERIDAN       CLOUDY    83  50  31 CALM      29.84S
BUFFALO        CLOUDY    82  42  24 NW8       29.90F
GILLETTE       MOSUNNY   89  42  19 NW7       29.83F
HULETT         FAIR      90  45  20 MISG      29.85
NEWCASTLE      FAIR      86  37  17 S8        29.87

$$
WYZ014>020-022>026-101>103-182100-
CENTRAL WYOMING

CITY           SKY/WX    TMP DP  RH WIND       PRES   REMARKS
BIG PINEY      PTSUNNY   78  35  21 SW18G24   30.06F
PINEDALE       MOCLDY    77  34  20 SW14G22   30.06F
DUBOIS         MOCLDY    75  36  23 W17G23    30.03F
LANDER         MOSUNNY   85  38  18 VRB7      29.91F
RIVERTON       SUNNY     81  44  27 VRB5      29.93F
CASPER         MOSUNNY   90  34  13 SW15G21   29.93F
DOUGLAS        MOSUNNY   91  38  15 VRB5      29.91F

$$
WYZ021-027>030-104>119-182100-
SOUTHERN WYOMING

CITY           SKY/WX    TMP DP  RH WIND       PRES   REMARKS
EVANSTON       PTSUNNY  N/A N/A N/A S18G28    30.07F
KEMMERER       PTCLDY    79  34  19 SW22G29   30.08F
FORT BRIDGER   MOCLDY    81  36  19 W10G22    30.09F
ROCK SPRINGS   SUNNY     83  31  15 SW14G24   30.05F
DIXON          FAIR      83  38  20 W9        30.09F
RAWLINS        SUNNY     83  30  14 SW17G25   30.08F
SARATOGA       FAIR      79  32  18 NW6       30.10F
LARAMIE        SUNNY     81  28  14 S12       30.11F
CHEYENNE       SUNNY     86  28  12 MISG      30.04F
TORRINGTON     SUNNY     87  53  31 SE10      29.89F
PINE BLUFFS    FAIR      88  32  13 S6        29.97F

$$


USA.gov is the U.S. government's official web portal to all federal, state and local government web resources and services.